Hlavní strana
METAR-TAF:

METAR-TAF

Letiště :

Jasper County, Indiana, Spojené státy americké

zeměpisná šířka: 40-56-52N, zeměpisná délka: 087-10-57W, výška: 213 m

Aktuální stav počasí

Zpráva byla vytvořena před 16 minutami, v 04:35 UTC
Bezvětří
Teplota 3°C
Vlhkost vzduchu 100%
Tlak 1016 hPa
Viditelnost: 4.8 km
Polojasno ve výšce 400 ft
Zataženo ve výšce 2700 ft
kouřmo

METAR: KRZL 200435Z AUTO 00000KT 3SM BR SCT004 OVC027 03/03 A2999 RMK AO2

Čas: 23:51 (04:51 UTC)


TAF: chybějící

Stav a předpovědi počasí z více než 4 000 letišť (zprávy METAR a TAF).

Červené a žluté tečky na mapě představují dostupné meteorologické stanice.

Když kurzor umístíte na tečku, zobrazí se název stanice.

Pak kliknutím zobrazíte stav a předpověď počasí.

Chcete-li změnit mapu, kliknutím na zelené tlačítko se znaménkem +mapu přiblížíte, kliknutím na zelené tlačítko se znaménkem – mapu oddálíte a kliknutím na zelené šipky přejdete na sousední mapy.


METAR-TAF: